Location: *
(55.5817°S, 142.4781°W)
Time: 06:47:13
(UTC+00:00)

Cosmos 2150 Rocket - Pass Details

Date: 29 April 2025
Orbit: 746 x 804 km, 74.0° (Epoch: 23 May)

Event Time Altitude Azimuth Distance (km) Brightness Sun altitude
Exits shadow 13:37:49 49° 13° (NNE) 1,042 4.6 -27.4°
Maximum altitude 13:39:05 64° 68° (ENE) 899 4.4 -27.2°
Drops below altitude 10° 13:44:31 10° 148° (SSE) 2,403 7.1 -26.5°
Sets 13:46:56 0° 150° (SSE) 3,331 7.9 -26.1°
